AirNav  
 
 811 users online  

83XS Ball Park Heliport
Houston, Texas, USA

GOING TO HOUSTON?


FAA INFORMATION EFFECTIVE 26 APRIL 2018

Location

FAA Identifier: 83XS
Lat/Long: 29-40-28.8350N / 095-37-05.8040W
29-40.480583N / 095-37.096733W
29.6746764 / -95.6182789
(estimated)
Elevation: 90 ft. / 27 m (estimated)
Variation: 06E (1985)
From city: 14 miles SW of HOUSTON, TX
Time zone: UTC -5 (UTC -6 during Standard Time)
Zip code: 77083

Heliport Operations

Heliport use: Private use. Permission required prior to landing
Activation date: 05/1979
Control tower: no
ARTCC: HOUSTON CENTER
FSS: MONTGOMERY COUNTY FLIGHT SERVICE STATION
FOR FP FILING CALL CXO FSS 1-800-833-5602.
Attendance: 0700-1700
Wind indicator: no
Segmented circle: no

Heliport Communications

WX ASOS at SGR (4 nm SW): 118.125 (281-242-7605)
WX AWOS-3 at AXH (13 nm SE): 123.625 (281-431-6572)
WX AWOS-3 at TME (17 nm NW): 119.525 (281-945-5451)
WX ASOS at HOU (18 nm E): PHONE 713-847-1462

Nearby radio navigation aids

VOR radial/distance  VOR name  Freq  Var
HUBr269/17.8HOBBY VOR/DME117.1005E
IAHr215/22.1HUMBLE VORTAC116.6005E
ELAr081/36.4EAGLE LAKE VOR/DME116.4008E

 
NDB name  Hdg/Dist  Freq  Var  ID
NIXIN223/28.432605EBVP -... ...- .--.
WHARTON042/37.624506EARM .- .-. --

Heliport Services

Runway Information

Helipad H1

Dimensions: 25 x 25 ft. / 8 x 8 m
LNDG & TKOFF 180' X 120'.
Surface: concrete
Traffic pattern: leftleft

Heliport Ownership and Management from official FAA records

Ownership: Privately-owned
Owner: PARK & SMYERS CONST INC
13301 OLD RICHMOND ROAD
HOUSTON, TX 77099
Phone 713-933-9870
Manager: PARK & SMYERS CONST INC
13301 OLD RICHMOND ROAD
HOUSTON, TX 77099
Phone 713-933-9870

Heliport Operational Statistics

Aircraft based on the field: 1
Helicopters: 1
    

Additional Remarks

A52-H1 PLINES 100' TO NORTH OF PAD.

Instrument Procedures

There are no published instrument procedures at 83XS.

Some nearby airports with instrument procedures:

KSGR - Sugar Land Regional Airport (4 nm SW)
KIWS - West Houston Airport (9 nm N)
KAXH - Houston Southwest Airport (13 nm SE)
KTME - Houston Executive Airport (17 nm NW)
KHOU - William P Hobby Airport (18 nm E)
 
Loc | Ops | Rwys | IFR | FBO | Links
Com | Nav | Svcs | Stats | Notes

AirNav Hotels Sweepstakes
 
Area around 83XS (Ball Park Heliport)
 
Road maps at: MapQuest Bing Google
 
Aerial photo
No photo
 
Sectional chart

 
Airport distance calculator
Flying to Ball Park Heliport? Find the distance to fly.

From to 83XS

Sunrise and sunset
Times for 26-Apr-2018
 Local
(UTC-5)
 Zulu
(UTC)
Morning civil twilight06:2111:21
Sunrise06:4611:46
Sunset19:5500:55
Evening civil twilight20:2001:20

Current date and time
Zulu (UTC)  27-Apr-2018 03:01:14
Local (UTC-5)  26-Apr-2018 22:01:14
 
METAR
KSGR 
4nm SW 
270253Z 32004KT 10SM CLR 16/12 A2996 RMK AO2 SLP146 T01610117 53017
KAXH 
13nm SE 
270255Z AUTO 00000KT 10SM CLR 18/11 A2998 RMK AO2 T01790106
KTME 
17nm NW 
270255Z AUTO 00000KT 10SM CLR 18/11 A2998 RMK AO2
KHOU 
18nm E 
270253Z 16004KT 10SM BKN250 18/13 A2996 RMK AO2 SLP151 T01780133 53021
TAF
KSGR 
4nm SW 
261721Z 2618/2718 35008KT P6SM SKC FM270200 VRB04KT P6SM SCT250 FM271200 34008KT P6SM BKN120 FM271600 34008KT P6SM SCT150
KHOU 
18nm E 
262055Z 2621/2718 31008KT P6SM FEW100 FM270200 VRB04KT P6SM SCT250 FM271200 34008KT P6SM BKN120 FM271600 34008KT P6SM SCT150
NOTAMs
Click for the latest NOTAMs
NOTAMs are issued by the DoD/FAA and will open in a separate window not controlled by AirNav.

 

 
 

Would you like to see your business listed on this page?

 If your business provides an interesting product or service to pilots, flight crews, aircraft, or users of the Ball Park Heliport, you should consider listing it here.  To start the listing process, click on the button below
 
Add a business
 

Other Pages about Ball Park Heliport

Update a link
 
Copyright © AirNav, LLC. All rights reserved. Privacy Policy  Contact